Weather History for KBTV - November, 2013

Change the Weather History Date:

Friday, November 22, 2013

  Actual Average Record
Temperature  
Mean Temperature 39 °F 36 °F  
Max Temperature 44 °F 43 °F 69 °F (1953)
Min Temperature 34 °F 29 °F 3 °F (1969)
Degree Days  
Heating Degree Days 26 29  
Month to date heating degree days 547 556  
Since 1 July heating degree days 1166 1297  
Cooling Degree Days 0 0  
Month to date cooling degree days 0 0  
Year to date cooling degree days 662 491  
Moisture  
Dew Point 35 °F    
Average Humidity 78    
Maximum Humidity 96    
Minimum Humidity 59    
Precipitation  
Precipitation 0.15 in 0.11 in 0.81 in (1962)
Month to date precipitation 1.09 2.37  
Year to date precipitation 41.11 33.68  
Snow  
Snow 0.00 in 0.20 in 4.30 in (2000)
Month to date snowfall 0.3 2.8  
Since 1 July snowfall 0.3 3.1  
Since 1 September snowfall 0.3 3.1  
Snow Depth 0.00 in    
Sea Level Pressure  
Sea Level Pressure 30.02 in    
Wind  
Wind Speed 3 mph (SSE)    
Max Wind Speed 17 mph    
Max Gust Speed 28 mph    
Visibility 8 miles    
Events Fog , Rain    
T = Trace of Precipitation, MM = Missing Value Source: NWS Daily Summary

Daily Weather History Graph

Daily Weather History Graph

Search for Another Location

Airport or City:

Trip Planner

Search our weather history database for the weather conditions in past years. The results will help you decide how hot, cold, wet, or windy it might be!

Date:

Astronomy

Nov. 22, 2013 Rise Set
Actual Time 6:58 AM EST 4:19 PM EST
Civil Twilight 6:26 AM EST 4:51 PM EST
Nautical Twilight 5:50 AM EST 5:26 PM EST
Astronomical Twilight 5:15 AM EST 6:01 PM EST
Moon 8:51 PM EST (11/22) 10:37 AM EST (11/22)
Length of Visible Light 10h 24m
Length of Day
9h 20m
Waning Gibbous, 78% of the Moon is Illuminated
Nov 22
Waning Gibbous
Nov 25
Last Quarter
Dec 2
New
Dec 9
First Quarter
Dec 17
Full

Hourly Weather History & Observations

Time (EST) Temp. Windchill Dew Point Humidity Pressure Visibility Wind Dir Wind Speed Gust Speed Precip Events Conditions
12:54 AM 39.0 °F 35.7 °F 27.0 °F 62% 30.32 in 10.0 mi South 4.6 mph - N/A   Overcast
1:54 AM 39.9 °F - 27.0 °F 60% 30.31 in 10.0 mi Calm Calm - N/A   Overcast
2:54 AM 37.0 °F - 27.0 °F 67% 30.27 in 10.0 mi Calm Calm - N/A   Overcast
3:54 AM 36.0 °F 33.3 °F 27.0 °F 70% 30.26 in 10.0 mi ENE 3.5 mph - N/A   Overcast
4:54 AM 36.0 °F - 27.0 °F 70% 30.25 in 10.0 mi Calm Calm - N/A   Overcast
5:54 AM 35.1 °F - 30.0 °F 82% 30.23 in 10.0 mi Calm Calm - 0.00 in Rain Light Rain
6:24 AM 35.6 °F - 30.2 °F 81% 30.20 in 10.0 mi Calm Calm - 0.02 in Rain Light Rain
6:54 AM 34.0 °F - 32.0 °F 92% 30.21 in 5.0 mi Calm Calm - 0.04 in Rain Light Rain
7:37 AM 33.8 °F - 33.8 °F 100% 30.18 in 8.0 mi Calm Calm - 0.01 in   Overcast
7:54 AM 34.0 °F 31.0 °F 33.1 °F 96% 30.19 in 6.0 mi East 3.5 mph - 0.02 in Fog , Rain Light Rain
8:20 AM 35.6 °F - 33.8 °F 93% 30.16 in 9.0 mi Calm Calm - 0.01 in   Light Drizzle
8:54 AM 36.0 °F 33.3 °F 34.0 °F 93% 30.16 in 10.0 mi East 3.5 mph - 0.01 in   Overcast
9:54 AM 37.0 °F - 35.1 °F 93% 30.13 in 10.0 mi Calm Calm - N/A   Overcast
10:54 AM 37.9 °F 35.5 °F 35.1 °F 89% 30.09 in 10.0 mi East 3.5 mph - N/A   Overcast
11:00 AM 37.4 °F 34.9 °F 35.6 °F 93% 30.08 in 10.0 mi East 3.5 mph - N/A   Overcast
11:54 AM 39.0 °F - 36.0 °F 89% 30.06 in 10.0 mi Calm Calm - N/A   Overcast
12:54 PM 37.9 °F - 36.0 °F 93% 30.03 in 9.0 mi Calm Calm - N/A   Overcast
1:54 PM 39.0 °F - 37.0 °F 93% 30.02 in 6.0 mi Calm Calm - N/A   Overcast
2:54 PM 39.0 °F 36.8 °F 37.0 °F 93% 29.99 in 6.0 mi East 3.5 mph - N/A   Overcast
3:54 PM 39.0 °F - 37.0 °F 93% 29.97 in 6.0 mi Calm Calm - N/A   Overcast
4:03 PM 39.2 °F - 37.4 °F 93% 29.96 in 6.0 mi Calm Calm - N/A   Overcast
4:49 PM 39.2 °F - 37.4 °F 93% 29.94 in 6.0 mi Calm Calm - N/A   Overcast
4:54 PM 39.0 °F - 37.0 °F 93% 29.96 in 9.0 mi Calm Calm - N/A   Overcast
5:38 PM 39.2 °F 35.9 °F 37.4 °F 93% 29.91 in 6.0 mi East 4.6 mph - 0.00 in   Light Drizzle
5:54 PM 39.0 °F - 37.0 °F 93% 29.91 in 6.0 mi Calm Calm - 0.00 in   Overcast
6:04 PM 39.2 °F - 37.4 °F 93% 29.90 in 6.0 mi Calm Calm - N/A   Overcast
6:45 PM 39.2 °F 35.9 °F 37.4 °F 93% 29.87 in 6.0 mi SE 4.6 mph - 0.00 in Rain Light Rain
6:54 PM 39.0 °F 34.8 °F 37.9 °F 96% 29.88 in 6.0 mi SE 5.8 mph - 0.00 in Rain Light Rain
7:05 PM 42.8 °F 40.1 °F 39.2 °F 87% 29.86 in 7.0 mi SSE 4.6 mph - 0.00 in Rain Light Rain
7:08 PM 42.8 °F 40.1 °F 39.2 °F 87% 29.86 in 7.0 mi SSE 4.6 mph - 0.00 in Rain Light Rain
7:54 PM 42.1 °F 39.2 °F 39.9 °F 92% 29.86 in 6.0 mi South 4.6 mph - 0.00 in Rain Light Rain
8:32 PM 42.8 °F 38.6 °F 39.2 °F 87% 29.83 in 4.0 mi SSW 6.9 mph - 0.01 in Rain Light Rain
8:54 PM 43.0 °F 37.7 °F 39.9 °F 89% 29.83 in 6.0 mi South 9.2 mph - 0.02 in Rain Light Rain
9:36 PM 42.8 °F 38.6 °F 41.0 °F 93% 29.81 in 6.0 mi SSW 6.9 mph - 0.01 in Rain Light Rain
9:54 PM 43.0 °F 39.5 °F 41.0 °F 93% 29.82 in 6.0 mi West 5.8 mph - 0.01 in Rain Light Rain
10:01 PM 42.8 °F 40.1 °F 41.0 °F 93% 29.81 in 6.0 mi SW 4.6 mph - 0.00 in Rain Light Rain
10:54 PM 43.0 °F - 41.0 °F 93% 29.82 in 6.0 mi Calm Calm - 0.00 in   Overcast
11:18 PM 42.8 °F 39.3 °F 39.2 °F 87% 29.82 in 3.0 mi NNW 5.8 mph - 0.03 in Rain Light Rain
11:31 PM 42.8 °F 39.3 °F 39.2 °F 87% 29.83 in 4.0 mi WNW 5.8 mph - 0.04 in Rain Light Rain
11:50 PM 42.8 °F 35.4 °F 35.6 °F 76% 29.84 in 10.0 mi WNW 15.0 mph 27.6 mph 0.05 in   Overcast
11:54 PM 43.0 °F 36.0 °F 34.0 °F 71% 29.85 in 10.0 mi WNW 13.8 mph 27.6 mph 0.05 in   Overcast